TimeAEST,TemperatureF,Dew PointF,Humidity,Sea Level PressureIn,VisibilityMPH,Wind Direction,Wind SpeedMPH,Gust SpeedMPH,PrecipitationIn,Events,Conditions,WindDirDegrees,DateUTC
12:00 AM,76,68,71,29.94,,South,10.4,,,,,170,2013-04-03 14:00:00
12:00 AM,75.2,68.0,78,29.95,6.2,South,10.4,-,N/A,,Scattered Clouds,170,2013-04-03 14:00:00
12:30 AM,77.0,68.0,74,29.92,6.2,SSE,11.5,-,N/A,,Mostly Cloudy,160,2013-04-03 14:30:00
1:00 AM,77,69,70,29.94,,South,10.4,,,,,190,2013-04-03 15:00:00
1:00 AM,77.0,69.8,78,29.92,6.2,South,10.4,-,N/A,,Mostly Cloudy,190,2013-04-03 15:00:00
1:30 AM,77.0,68.0,74,29.92,6.2,South,10.4,-,N/A,,Mostly Cloudy,170,2013-04-03 15:30:00
2:00 AM,75.2,69.8,83,29.92,6.2,South,12.7,-,N/A,,Mostly Cloudy,180,2013-04-03 16:00:00
2:30 AM,75.2,69.8,83,29.92,6.2,South,12.7,-,N/A,,Mostly Cloudy,170,2013-04-03 16:30:00
3:00 AM,72,71,94,29.93,6,South,13.8,,,,Overcast,180,2013-04-03 17:00:00
3:00 AM,73.4,69.8,88,29.92,5.0,South,13.8,-,N/A,Rain,Light Rain Showers,180,2013-04-03 17:00:00
3:30 AM,71.6,69.8,94,29.92,6.2,South,13.8,-,N/A,,Mostly Cloudy,190,2013-04-03 17:30:00
4:00 AM,73,69,82,29.93,,South,17.3,,,,,190,2013-04-03 18:00:00
4:00 AM,73.4,68.0,83,29.92,6.2,South,17.3,-,N/A,,Mostly Cloudy,190,2013-04-03 18:00:00
4:30 AM,73.4,66.2,78,29.92,6.2,South,6.9,-,N/A,,Overcast,180,2013-04-03 18:30:00
5:00 AM,73.4,68.0,83,29.92,6.2,South,11.5,-,N/A,,Overcast,180,2013-04-03 19:00:00
5:30 AM,73.4,69.8,88,29.92,6.2,South,10.4,-,N/A,,Mostly Cloudy,170,2013-04-03 19:30:00
6:00 AM,74,69,80,29.94,16,South,12.7,,,,Partly Cloudy,190,2013-04-03 20:00:00
6:00 AM,73.4,69.8,88,29.95,6.2,South,12.7,-,N/A,,Mostly Cloudy,190,2013-04-03 20:00:00
6:30 AM,73.4,68.0,83,29.95,6.2,South,12.7,-,N/A,,Mostly Cloudy,180,2013-04-03 20:30:00
7:00 AM,76,67,66,29.96,,South,8.1,,,,,190,2013-04-03 21:00:00
7:00 AM,77.0,66.2,69,29.95,6.2,South,8.1,-,N/A,,Mostly Cloudy,190,2013-04-03 21:00:00
7:30 AM,75.2,68.0,78,29.95,6.2,South,8.1,-,N/A,,Mostly Cloudy,170,2013-04-03 21:30:00
8:00 AM,77.0,68.0,74,29.95,6.2,SSE,8.1,-,N/A,,Mostly Cloudy,150,2013-04-03 22:00:00
8:30 AM,78.8,68.0,69,29.98,6.2,South,11.5,-,N/A,,Scattered Clouds,180,2013-04-03 22:30:00
9:00 AM,80,70,65,29.99,19,South,9.2,,,,Partly Cloudy,170,2013-04-03 23:00:00
9:00 AM,80.6,69.8,70,29.98,6.2,South,9.2,-,N/A,,Partly Cloudy,170,2013-04-03 23:00:00
9:30 AM,80.6,69.8,70,29.98,6.2,South,12.7,-,N/A,,Scattered Clouds,170,2013-04-03 23:30:00
10:00 AM,83,69,53,29.99,,SSE,12.7,,,,,160,2013-04-04 00:00:00
10:00 AM,82.4,68.0,62,29.98,6.2,SSE,12.7,-,N/A,,Partly Cloudy,160,2013-04-04 00:00:00
10:30 AM,84.2,68.0,58,29.98,6.2,SSE,17.3,-,N/A,,Partly Cloudy,150,2013-04-04 00:30:00
11:00 AM,84.2,68.0,58,29.98,6.2,SE,15.0,-,N/A,,Scattered Clouds,140,2013-04-04 01:00:00
11:30 AM,84.2,68.0,58,29.95,6.2,SE,15.0,-,N/A,,Scattered Clouds,140,2013-04-04 01:30:00
12:00 PM,86,67,44,29.95,19,SE,17.3,,,,Partly Cloudy,130,2013-04-04 02:00:00
12:00 PM,86.0,68.0,55,29.95,6.2,SE,17.3,-,N/A,,Scattered Clouds,130,2013-04-04 02:00:00
12:30 PM,86.0,66.2,51,29.95,6.2,SE,18.4,-,N/A,,Scattered Clouds,130,2013-04-04 02:30:00
1:00 PM,87,62,33,29.94,,SE,17.3,,,,,130,2013-04-04 03:00:00
1:00 PM,86.0,62.6,45,29.92,6.2,SE,17.3,-,N/A,,Scattered Clouds,130,2013-04-04 03:00:00
1:30 PM,87.8,66.2,49,29.92,6.2,SE,17.3,-,N/A,,Scattered Clouds,130,2013-04-04 03:30:00
2:00 PM,86.0,66.2,51,29.92,6.2,SE,17.3,-,N/A,,Mostly Cloudy,130,2013-04-04 04:00:00
2:30 PM,84.2,64.4,51,29.89,6.2,SE,17.3,-,N/A,,Mostly Cloudy,130,2013-04-04 04:30:00
3:00 PM,80,69,62,29.92,12,ESE,20.7,,,,Mostly Cloudy,110,2013-04-04 05:00:00
3:00 PM,80.6,69.8,70,29.92,6.2,ESE,20.7,-,N/A,,Mostly Cloudy,110,2013-04-04 05:00:00
3:30 PM,78.8,66.2,65,29.92,6.2,South,10.4,-,N/A,,Mostly Cloudy,170,2013-04-04 05:30:00
4:00 PM,79,69,65,29.93,,South,9.2,,,,,190,2013-04-04 06:00:00
4:00 PM,78.8,69.8,74,29.92,6.2,South,9.2,-,N/A,,Mostly Cloudy,190,2013-04-04 06:00:00
4:30 PM,80.6,69.8,70,29.92,6.2,South,10.4,-,N/A,,Mostly Cloudy,180,2013-04-04 06:30:00
4:49 PM,78.8,68.0,69,29.92,3.7,South,15.0,-,N/A,,Mostly Cloudy,170,2013-04-04 06:49:00
4:51 PM,77.0,68.0,74,29.92,3.1,South,19.6,32.2,N/A,,Mostly Cloudy,170,2013-04-04 06:51:00
5:00 PM,75.2,71.6,89,29.92,3.7,South,20.7,32.2,N/A,Rain,Light Rain Showers,170,2013-04-04 07:00:00
5:30 PM,75.2,68.0,78,29.92,6.2,SSW,6.9,-,N/A,,Mostly Cloudy,210,2013-04-04 07:30:00
6:00 PM,74,69,79,29.94,,SSE,8.1,,,,Overcast,150,2013-04-04 08:00:00
6:00 PM,75.2,69.8,83,29.95,6.2,SSE,8.1,-,N/A,,Mostly Cloudy,150,2013-04-04 08:00:00
6:30 PM,75.2,69.8,83,29.95,5.0,SSE,8.1,-,N/A,,Mostly Cloudy,160,2013-04-04 08:30:00
6:54 PM,71.6,69.8,94,29.95,2.5,SSE,21.9,-,N/A,Rain,Light Rain Showers,160,2013-04-04 08:54:00
7:00 PM,72,71,95,29.97,,South,17.3,,,,,170,2013-04-04 09:00:00
7:00 PM,71.6,71.6,100,29.95,2.5,South,17.3,29.9,N/A,Rain,Light Rain Showers,170,2013-04-04 09:00:00
7:30 PM,73.4,71.6,94,29.95,5.6,South,11.5,-,N/A,Rain,Light Rain Showers,170,2013-04-04 09:30:00
8:00 PM,73.4,71.6,94,29.98,6.2,South,15.0,-,N/A,Rain,Light Rain Showers,170,2013-04-04 10:00:00
8:30 PM,73.4,69.8,88,29.98,6.2,South,11.5,-,N/A,,Mostly Cloudy,180,2013-04-04 10:30:00
9:00 PM,73,69,84,30.01,,South,17.3,,,,Overcast,190,2013-04-04 11:00:00
9:00 PM,73.4,69.8,88,30.01,3.7,South,17.3,-,N/A,Rain,Light Rain Showers,190,2013-04-04 11:00:00
9:26 PM,71.6,68.0,88,30.01,6.2,South,15.0,-,N/A,,Mostly Cloudy,180,2013-04-04 11:26:00
9:30 PM,71.6,68.0,88,30.01,6.2,South,13.8,-,N/A,,Mostly Cloudy,190,2013-04-04 11:30:00
10:00 PM,75,65,63,30.00,,South,12.7,,,,,190,2013-04-04 12:00:00
10:00 PM,75.2,64.4,69,29.98,6.2,South,12.7,-,N/A,,Mostly Cloudy,190,2013-04-04 12:00:00
10:30 PM,73.4,66.2,78,30.01,6.2,South,13.8,-,N/A,,Mostly Cloudy,170,2013-04-04 12:30:00
11:00 PM,71.6,68.0,88,29.98,5.0,South,17.3,-,N/A,Rain,Light Rain Showers,170,2013-04-04 13:00:00
11:30 PM,73.4,68.0,83,29.98,6.2,South,15.0,-,N/A,,Mostly Cloudy,190,2013-04-04 13:30:00
11:44 PM,73.4,68.0,83,29.98,3.1,South,13.8,-,N/A,Rain,Light Rain Showers,190,2013-04-04 13:44:00